Location: Unspecified
(32.6095°N, 0.0000°E)
Time: 13:56:40
(UTC+00:00)

Envisat - Pass Details

Date: 27 May 2019
Orbit: 764 x 766 km, 98.1° (Epoch: 26 June)

Event Time Altitude Azimuth Distance (km) Brightness Sun altitude
Rises 19:24:45 0° 196° (SSW) 3,217 6.1 -5.5°
Reaches altitude 10° 19:27:25 10° 209° (SSW) 2,295 5.5 -6.0°
Maximum altitude 19:31:32 25° 264° (W) 1,514 5.3 -6.8°
Drops below altitude 10° 19:35:40 10° 319° (NW) 2,306 6.9 -7.5°
Sets 19:38:22 0° 332° (NNW) 3,236 7.4 -8.0°
